Location: Finnegan
(51.1333°N, 112.0833°W)
Time: 13:16:19
(UTC+00:00)

Envisat - Pass Details

Date: 10 December 2021
Orbit: 764 x 766 km, 98.2° (Epoch: 28 January)

Event Time Altitude Azimuth Distance (km) Brightness Sun altitude
Rises 11:47:56 0° 21° (NNE) 3,247 6.5 -32.2°
Reaches altitude 10° 11:50:28 10° 31° (NNE) 2,315 5.8 -31.8°
Maximum altitude 11:55:04 33° 95° (E) 1,271 4.6 -31.1°
Drops below altitude 10° 11:59:37 10° 159° (SSE) 2,298 5.7 -30.3°
Sets 12:02:08 0° 169° (SSE) 3,219 6.4 -29.9°
